Regional Weather Roundup
Issued by NWS Austin/San Antonio, TX

Home | Current Version | Previous Version | Text Only | Print | Product List | Glossary On
Versions: 1 2 3 4 5 6 7 8 9 10 11 12 13 14 15 16 17 18 19 20 21 22 23 24 25 26 27 28 29 30 31 32 33 34 35 36 37 38 39 40 41 42 43 44 45 46 47 48 49 50
925
ASUS44 KEWX 211811
RWREWX
SOUTH TEXAS REGIONAL WEATHER ROUNDUP
NATIONAL WEATHER SERVICE AUSTIN/SAN ANTONIO TX
100 PM CDT MON OCT 21 2019

NOTE: "FAIR" INDICATED FEW OR NO CLOUDS BELOW 12,000 FEET WITH NO
SIGNIFICANT WEATHER AND/OR OBSTRUCTIONS TO VISIBILITY.

* - THESE STATIONS ARE NOT NWS OR FAA STATIONS...AND ARE NOT SUBJECT
    TO NWS AND FAA QUALITY CONTROL.

TXZ171-172-183>190-211900-
TEXAS HILL COUNTRY AND EDWARDS PLATEAU

CITY           SKY/WX    TMP DP  RH WIND       PRES   REMARKS
JUNCTION       SUNNY     72  35  25 VRB6      29.99F
6HR MIN TEMP:  51; 6HR MAX TEMP:  72;

*LLANO         SUNNY     73  32  21 N7        29.99F
BURNET         SUNNY     71  31  22 VRB7      29.97F
6HR MIN TEMP:  57; 6HR MAX TEMP:  72;

*HORSESHOE BAY SUNNY     73  34  23 NE5       29.96F
*KERRVILLE     SUNNY     74  32  21 NE6       29.96S
6HR MIN TEMP:  57; 6HR MAX TEMP:  74;

*FREDERICKSBRG SUNNY     71  32  23 N8        29.97F
6HR MIN TEMP:  56; 6HR MAX TEMP:  71;

*ROCKSPRINGS   SUNNY     70  32  24 N8G15     30.04S
*BOERNE        SUNNY     72  37  28 NE9       29.95F
*CASTROVILLE   SUNNY     80  34  19 NE9       29.93F
HONDO          SUNNY     81  36  19 NE13      29.93F
6HR MIN TEMP:  64; 6HR MAX TEMP:  81;

*UVALDE        SUNNY     79  34  19 N9G16     29.94S
6HR MIN TEMP:  65; 6HR MAX TEMP:  79;

DEL RIO        SUNNY     81  26  13 NW10G16   29.95F
6HR MIN TEMP:  66; 6HR MAX TEMP:  82;

LAUGHLIN AFB   SUNNY     81  26  13 NW5       29.95S
6HR MIN TEMP:  61; 6HR MAX TEMP:  82;

SPOFFORD       SUNNY     82  24  12 N9        29.88F
6HR MIN TEMP:  64; 6HR MAX TEMP:  82;

*EAGLE PASS    SUNNY     82  30  15 NW9G16    29.94F
CARRIZO SPRGS  SUNNY     82  41  23 N5        29.91F
*FAITH RANCH   SUNNY     84  45  24 NE13      29.91F
$$

TXZ173-191>194-202-209-217>225-228-211900-
CENTRAL AND SOUTH CENTRAL TEXAS

CITY           SKY/WX    TMP DP  RH WIND       PRES   REMARKS
GEORGETOWN     SUNNY     76  36  23 N13       29.95F
6HR MIN TEMP:  59; 6HR MAX TEMP:  76;

AUSTIN/BERGSTM MOSUNNY   77  40  26 NE17      29.91F
6HR MIN TEMP:  64; 6HR MAX TEMP:  78;

AUSTIN/MABRY   SUNNY     77  34  21 N9        29.94S
6HR MIN TEMP:  64; 6HR MAX TEMP:  77;

*AUSTIN/EXEC   SUNNY     73  36  25 NE15G23   29.93F
*LAGO VISTA    SUNNY     72  39  29 NE7       29.95F
6HR MIN TEMP:  57; 6HR MAX TEMP:  73;

SAN MARCOS     SUNNY     77  39  25 NE14      29.92F
6HR MIN TEMP:  66; 6HR MAX TEMP:  78;

NEW BRAUNFELS  SUNNY     79  39  23 NE15G23   29.91F
6HR MIN TEMP:  66; 6HR MAX TEMP:  79;

RANDOLPH AFB   SUNNY     77  38  24 N10       29.91F
6HR MIN TEMP:  65; 6HR MAX TEMP:  77;

SEGUIN         SUNNY     76  37  24 NE15      29.94F
6HR MIN TEMP:  65; 6HR MAX TEMP:  76;

KELLY FIELD    SUNNY     78  38  23 NE12      29.90F
6HR MIN TEMP:  66; 6HR MAX TEMP:  79;

SAN ANTONIO    MOSUNNY   77  39  25 NE15G22   29.93F
6HR MIN TEMP:  65; 6HR MAX TEMP:  77;

STINSON FIELD  SUNNY     78  41  26 N9G17     29.89F
6HR MIN TEMP:  66; 6HR MAX TEMP:  78;

PLEASANTON     SUNNY     78  38  24 NE13G18   29.91F
6HR MIN TEMP:  65; 6HR MAX TEMP:  79;

*LA GRANGE     SUNNY     77  46  33 NE8       29.88F
6HR MIN TEMP:  67; 6HR MAX TEMP:  78;

*GIDDINGS      SUNNY     77  42  28 NE8       29.92S
6HR MIN TEMP:  66; 6HR MAX TEMP:  77;

*GONZALES      SUNNY     77  46  32 NE10G18   29.89F
6HR MIN TEMP:  66; 6HR MAX TEMP:  77; 6HR PCP:  0.01;

$$

TXZ163>164-176>182-195>201-210>213-226-227-235-211900-
SOUTHEAST TEXAS

CITY           SKY/WX    TMP DP  RH WIND       PRES   REMARKS
COLLEGE STN    SUNNY     77  44  30 N12       29.90F
6HR MIN TEMP:  67; 6HR MAX TEMP:  77;

*BRYAN         SUNNY     76  45  32 NE12      29.91F
6HR MIN TEMP:  65; 6HR MAX TEMP:  76;

*CALDWELL      SUNNY     74  40  28 NE10G16   29.91F
6HR MIN TEMP:  64; 6HR MAX TEMP:  75;

*CROCKETT      SUNNY     73  46  38 N8        29.92R
*BRENHAM       SUNNY     76  44  31 N8G16     29.90F
6HR MIN TEMP:  67; 6HR MAX TEMP:  76;

HUNTSVILLE     SUNNY     76  49  38 N6        29.89F
6HR MIN TEMP:  64; 6HR MAX TEMP:  77; 6HR PCP: TRACE;

CONROE         SUNNY     75  60  59 N9        29.88S
6HR MIN TEMP:  66; 6HR MAX TEMP:  76;

HOUSTON BUSH   PTSUNNY   75  60  59 N12       29.87S
6HR MIN TEMP:  68; 6HR MAX TEMP:  75; 6HR PCP:  0.35;

HOUSTON HOBBY  PTSUNNY   73  62  68 NE9       29.86F
6HR MIN TEMP:  68; 6HR MAX TEMP:  79; 6HR PCP:  0.64;

*HOUSTON SW AP FAIR      73  63  72 N8        29.87F
6HR MIN TEMP:  66; 6HR MAX TEMP:  73; 6HR PCP:  1.01;

PEARLAND       PTSUNNY   73  62  68 N9        29.88F
6HR MIN TEMP:  68; 6HR MAX TEMP:  80; 6HR PCP:  1.32;

HOUSTON HOOKS  FAIR      74  58  57 NE8       29.88S
6HR MIN TEMP:  66; 6HR MAX TEMP:  74; 6HR PCP:  0.05;

ELLINGTON FLD  NOT AVBL
SUGAR LAND     FAIR      76  60  57 NE15      29.86F
6HR MIN TEMP:  67; 6HR MAX TEMP:  76; 6HR PCP:  0.13;

*HOUSTON EXEC  FAIR      75  61  60 N7        29.89F
*CLEVELAND MUN FAIR      72  64  76 CALM      29.89S
6HR MIN TEMP:  66; 6HR MAX TEMP:  72; 6HR PCP:  0.16;

*WHARTON       SUNNY     75  54  47 N13G21    29.87F
6HR MIN TEMP:  67; 6HR MAX TEMP:  75; 6HR PCP:  0.55;

*COLUMBUS      FAIR      77  48  36 N9        29.90S
6HR MIN TEMP:  65; 6HR MAX TEMP:  77; 6HR PCP:  0.02;

*EAGLE LAKE    SUNNY     79  58  48 NE15      29.88
6HR MIN TEMP:  69; 6HR MAX TEMP:  79; 6HR PCP:  0.08;

$$

TXZ214>216-236>238-211900-
THE UPPER TEXAS COAST

CITY           SKY/WX    TMP DP  RH WIND       PRES   REMARKS
*ORANGE        PTSUNNY   70  70 100 CALM      29.87R
6HR MIN TEMP:  68; 6HR MAX TEMP:  81; 6HR PCP:  1.83;

PORT ARTHUR    PTSUNNY   71  67  87 N6        29.84S
6HR MIN TEMP:  68; 6HR MAX TEMP:  81; 6HR PCP:  1.85;

GALVESTON      FAIR      71  66  84 N16       29.85F
6HR MIN TEMP:  69; 6HR MAX TEMP:  80; 6HR PCP:  2.37;

ANGLETON       PTSUNNY   71  66  84 N12       29.86S
6HR MIN TEMP:  67; 6HR MAX TEMP:  77; 6HR PCP:  1.40;

*BAY CITY      PTSUNNY   74  68  82 N10       29.86S
PALACIOS       SUNNY     76  62  62 N18       29.85S
6HR MIN TEMP:  67; 6HR MAX TEMP:  80; 6HR PCP:  0.75;

$$

TXZ229>234-239>247-211900-
TEXAS COASTAL BEND AND RIO GRANDE PLAINS

CITY           SKY/WX    TMP DP  RH WIND       PRES   REMARKS
VICTORIA       PTSUNNY   78  62  57 N13       29.87S
6HR MIN TEMP:  70; 6HR MAX TEMP:  79; 6HR PCP:  0.05;

*BEEVILLE      SUNNY     84  53  34 NE16      29.86R
6HR MIN TEMP:  75; 6HR MAX TEMP:  85;

ROCKPORT       PTSUNNY   82  65  56 NE15      29.84S
6HR MIN TEMP:  71; 6HR MAX TEMP:  82; 6HR PCP:  0.21;

*PORT ARANSAS  CLOUDY    76  66  72 N21       29.85F
6HR MIN TEMP:  72; 6HR MAX TEMP:  80; 6HR PCP:  0.03;

*PORT LAVACA   MOSUNNY   80  66  62 N16       29.86F
6HR MIN TEMP:  71; 6HR MAX TEMP:  80; 6HR PCP:  0.11;

*INGLESIDE     SUNNY     78  66  66 NE17      29.84F
CORPUS CHRISTI PTSUNNY   83  64  52 NE17      29.83F
6HR MIN TEMP:  76; 6HR MAX TEMP:  84;

CORPUS NAS     CLOUDY    77  68  73 N17       29.83F
6HR MIN TEMP:  73; 6HR MAX TEMP:  83; 6HR PCP:  0.03;

*ROBSTOWN      SUNNY     83  62  48 N13       29.84S
ALICE          MOSUNNY   87  60  40 NE15G22   29.84S
6HR MIN TEMP:  77; 6HR MAX TEMP:  88;

KINGSVILLE NAS CLOUDY    85  64  49 N15G22    29.83S
6HR MIN TEMP:  76; 6HR MAX TEMP:  87;

COTULLA        SUNNY     83  40  21 NE15      29.90F
6HR MIN TEMP:  70; 6HR MAX TEMP:  83; 6HR PCP: TRACE;

LAREDO         MOSUNNY   87  58  37 NW18      29.87S
6HR MIN TEMP:  75; 6HR MAX TEMP:  87;



USA.gov is the U.S. government's official web portal to all federal, state and local government web resources and services.